Location: Boquerón
(10.0687°N, 67.9212°W)
Time: 09:58:27
(UTC+00:00)

CBERS 1 LM4 rocket - Pass Details

Date: 29 May 2024
Orbit: 698 x 837 km, 98.8° (Epoch: 16 June)

Event Time Altitude Azimuth Distance (km) Brightness Sun altitude
Rises 23:25:40 0° 164° (SSE) 3,179 7.3 -9.1°
Reaches altitude 10° 23:27:55 10° 162° (SSE) 2,275 6.6 -9.6°
Maximum altitude 23:32:56 76° 77° (ENE) 802 4.5 -10.7°
Drops below altitude 10° 23:38:08 10° 352° (N) 2,364 7.5 -11.9°
Sets 23:40:30 0° 351° (N) 3,312 8.3 -12.4°
